This demonstration page uses our WeatherBlox Daily Observations layout. Learn more.

Hourly Observations for October 19, 2019

Temp ( °F °C ) Dew Point ( °F °C ) Humidity (%) Winds ( mph kmh ) Pressure ( in mb ) Visibility ( mi km ) Precip ( " mm )
12:15 am 00:15 Mostly Cloudy 50 10.2 47 8.3 88 88 Calm 29.74 1007 10 16.09344 0 0
12:35 am 00:35 Mostly Cloudy 50 10.2 46 7.7 85 85 N 3 6 29.8 1009 10 16.09344 0 0
12:55 am 00:55 Cloudy 51 10.6 46 7.5 81 81 Calm 29.77 1008 10 16.09344 0 0
1:15 am 01:15 Cloudy 50 10 44 6.7 80 80 NW 3 6 29.8 1009 10 16.09344 0 0
1:35 am 01:35 Partly Cloudy 51 10.5 42 5.5 71 71 NW 6 9 29.77 1008 10 16.09344 0 0
1:55 am 01:55 Clear 50 10 41 5.1 72 72 NNW 6 9 29.8 1009 10 16.09344 0 0
2:15 am 02:15 Clear 49 9.6 41 4.8 72 72 NNW 6 9 29.8 1009 10 16.09344 0 0
2:35 am 02:35 Clear 47 8.4 40 4.5 77 77 NW 5 7 29.8 1009 10 16.09344 0 0
2:55 am 02:55 Clear 46 7.5 40 4.2 80 80 NW 6 9 29.8 1009 10 16.09344 0 0
3:15 am 03:15 Clear 44 6.4 39 3.7 83 83 WNW 6 9 29.83 1010 10 16.09344 0 0
3:35 am 03:35 Clear 44 6.6 39 3.9 83 83 WNW 5 7 29.83 1010 10 16.09344 0 0
3:55 am 03:55 Clear 44 6.8 39 3.8 81 81 NW 5 7 29.83 1010 10 16.09344 0 0
4:15 am 04:15 Clear 43 6.2 38 3.6 84 84 NW 3 6 29.83 1010 10 16.09344 0 0
4:35 am 04:35 Clear 42 5.5 38 3.3 86 86 Calm 29.83 1010 10 16.09344 0 0
4:55 am 04:55 Clear 42 5.5 38 3.5 87 87 NW 5 7 29.83 1010 10 16.09344 0 0
5:15 am 05:15 Clear 40 4.7 38 3.1 90 90 WNW 3 6 29.85 1011 10 16.09344 0 0
5:35 am 05:35 Clear 41 5 38 3.2 88 88 NW 5 7 29.85 1011 10 16.09344 0 0
5:55 am 05:55 Clear 41 5 38 3.5 90 90 WNW 6 9 29.85 1011 10 16.09344 0 0
6:15 am 06:15 Clear 41 5.2 39 3.7 90 90 WNW 7 11 29.85 1011 10 16.09344 0 0
6:35 am 06:35 Clear 42 5.5 39 4 90 90 WNW 7 11 29.85 1011 10 16.09344 0 0
6:55 am 06:55 Clear 42 5.4 39 3.7 89 89 WNW 6 9 29.85 1011 10 16.09344 0 0
7:15 am 07:15 Clear 41 5 38 3.3 89 89 NW 6 9 29.88 1012 10 16.09344 0 0
7:35 am 07:35 Clear 41 5 38 3.3 89 89 NW 7 11 29.88 1012 10 16.09344 0 0
7:55 am 07:55 Sunny 41 5 38 3.2 88 88 WNW 8 13 29.88 1012 10 16.09344 0 0
8:15 am 08:15 Sunny 41 5 38 3.1 88 88 WNW 8 13 29.88 1012 10 16.09344 0 0
8:35 am 08:35 Sunny 42 5.4 38 3.4 87 87 NW 7 11 29.88 1012 10 16.09344 0 0
9:15 am 09:15 Sunny 45 7.3 39 4.1 80 80 NW 7 11 29.88 1012 10 16.09344 0 0
9:35 am 09:35 Sunny 47 8.6 41 4.8 77 77 NW 7 11 29.85 1011 10 16.09344 0 0
9:55 am 09:55 Sunny 50 9.9 41 5.2 73 73 WNW 6 9 29.88 1012 10 16.09344 0 0
10:15 am 10:15 Sunny 53 11.4 42 5.8 69 69 NW 3 6 29.85 1011 10 16.09344 0 0
10:35 am 10:35 Sunny 55 12.7 42 5.5 62 62 WNW 7 11 29.85 1011 10 16.09344 0 0
10:55 am 10:55 Sunny 57 13.8 43 5.9 59 59 W 7 11 29.85 1011 10 16.09344 0 0
11:15 am 11:15 Sunny 58 14.7 42 5.3 54 54 W 8 13 29.85 1011 10 16.09344 0 0
11:35 am 11:35 Sunny 60 15.6 42 5.4 51 51 W 6 9 29.83 1010 10 16.09344 0 0
11:55 am 11:55 Sunny 62 16.6 38 3.6 42 42 W 5 7 29.83 1010 10 16.09344 0 0
12:15 pm 12:15 Sunny 62 16.9 36 2.2 37 37 NW 3 6 29.8 1009 10 16.09344 0 0
12:35 pm 12:35 Sunny 63 17.3 37 2.7 38 38 SW 6 9 29.8 1009 10 16.09344 0 0
12:55 pm 12:55 Sunny 63 17.4 34 1.3 34 34 S 3 6 29.8 1009 10 16.09344 0 0
1:15 pm 13:15 Sunny 64 17.7 35 1.9 35 35 SW 8 13 29.74 1007 10 16.09344 0 0
1:35 pm 13:35 Sunny 64 17.9 35 1.4 33 33 SSW 6 9 29.74 1007 10 16.09344 0 0
1:55 pm 13:55 Sunny 65 18.5 35 1.8 33 33 SW 7 11 29.74 1007 10 16.09344 0 0
2:15 pm 14:15 Sunny 65 18.6 35 1.6 32 32 SSW 10 17 29.71 1006 10 16.09344 0 0
2:35 pm 14:35 Sunny 66 18.8 34 1.1 31 31 WSW 8 13 29.71 1006 10 16.09344 0 0
2:55 pm 14:55 Sunny 67 19.3 32 0 27 27 W 13 20 29.71 1006 10 16.09344 0 0
3:15 pm 15:15 Sunny 67 19.5 32 0.2 28 28 WSW 9 15 29.71 1006 10 16.09344 0 0
3:35 pm 15:35 Sunny 67 19.2 33 0.5 29 29 W 8 13 29.71 1006 10 16.09344 0 0
3:55 pm 15:55 Sunny 68 19.9 32 -0.2 26 26 WNW 14 22 29.71 1006 10 16.09344 0 0
4:15 pm 16:15 Sunny 67 19.5 30 -1.3 25 25 W 14 22 29.71 1006 10 16.09344 0 0
4:35 pm 16:35 Sunny 67 19.3 29 -1.9 24 24 WNW 9 15 29.71 1006 10 16.09344 0 0
4:55 pm 16:55 Sunny 67 19.5 28 -2.4 23 23 W 12 19 29.71 1006 10 16.09344 0 0
5:15 pm 17:15 Sunny 67 19.2 28 -2.2 24 24 NW 8 13 29.71 1006 10 16.09344 0 0
5:35 pm 17:35 Sunny 66 19 28 -2.5 23 23 WNW 10 17 29.71 1006 10 16.09344 0 0
5:55 pm 17:55 Sunny 65 18.5 28 -2.3 24 24 WNW 8 13 29.71 1006 10 16.09344 0 0
6:15 pm 18:15 Sunny 64 17.9 28 -2.2 26 26 WNW 5 7 29.71 1006 10 16.09344 0 0
6:35 pm 18:35 Sunny 62 16.7 28 -2.5 27 27 Calm 29.74 1007 10 16.09344 0 0
6:55 pm 18:55 Clear 59 14.9 29 -1.9 32 32 Calm 29.74 1007 10 16.09344 0 0
7:15 pm 19:15 Clear 54 12.1 30 -1.1 40 40 Calm 29.77 1008 10 16.09344 0 0
7:35 pm 19:35 Clear 53 11.6 29 -1.4 41 41 Calm 29.77 1008 10 16.09344 0 0
7:55 pm 19:55 Clear 52 11.1 29 -1.4 42 42 SE 3 6 29.77 1008 10 16.09344 0 0
8:15 pm 20:15 Clear 51 10.5 29 -1.6 43 43 SE 5 7 29.77 1008 10 16.09344 0 0
8:35 pm 20:35 Clear 50 9.9 29 -1.6 45 45 SE 3 6 29.8 1009 10 16.09344 0 0
8:55 pm 20:55 Clear 46 7.9 31 -0.6 55 55 SE 5 7 29.8 1009 10 16.09344 0 0
9:15 pm 21:15 Clear 45 7.4 31 -0.5 58 58 Calm 29.8 1009 10 16.09344 0 0
9:35 pm 21:35 Clear 46 7.6 30 -1.2 54 54 SSE 5 7 29.8 1009 10 16.09344 0 0
9:55 pm 21:55 Clear 45 7.4 30 -1.3 54 54 SE 3 6 29.77 1008 10 16.09344 0 0
10:15 pm 22:15 Clear 41 5 31 -0.5 68 68 SE 8 13 29.83 1010 10 16.09344 0 0
10:35 pm 22:35 Clear 46 7.9 32 -0.1 57 57 SSE 6 9 29.8 1009 10 16.09344 0 0
10:55 pm 22:55 Clear 47 8.4 36 2.2 65 65 SSE 8 13 29.8 1009 10 16.09344 0 0
11:15 pm 23:15 Clear 48 8.8 37 3 67 67 SSE 7 11 29.77 1008 10 16.09344 0 0
11:35 pm 23:35 Clear 47 8.5 37 3 69 69 SSE 6 9 29.77 1008 10 16.09344 0 0
11:55 pm 23:55 Clear 47 8.4 37 2.9 69 69 SSE 6 9 29.77 1008 10 16.09344 0 0

Powered by AerisWeather